Rock Springs, WY

4:20 AM MST on November 19, 2017 (GMT -0700)
Rock Springs-Sweetwater

Weather History for KRKS - February, 2013

Change the Weather History Date:

Saturday, February 2, 2013

  Actual Average Record
Temperature  
Mean Temperature 32 °F 22 °F  
Max Temperature 41 °F 31 °F 48 °F (2000)
Min Temperature 22 °F 13 °F -21 °F (2011)
Degree Days  
Heating Degree Days 33 43  
Month to date heating degree days 65 86  
Since 1 July heating degree days 4434 4790  
Cooling Degree Days 0 0  
Month to date cooling degree days 0 0  
Year to date cooling degree days 0 0  
Moisture  
Dew Point 18 °F    
Average Humidity 62    
Maximum Humidity 84    
Minimum Humidity 40    
Precipitation  
Precipitation 0.00 in 0.02 in 0.12 in (1964)
Month to date precipitation 0.00 0.04  
Year to date precipitation T 0.49  
Sea Level Pressure  
Sea Level Pressure 30.43 in    
Wind  
Wind Speed 15 mph (WSW)    
Max Wind Speed 26 mph    
Max Gust Speed 31 mph    
Visibility 10 miles    
Events      
T = Trace of Precipitation, MM = Missing Value Source: NWS Daily Summary

Daily Weather History Graph

Daily Weather History Graph

Search for Another Location

Airport or City:

Trip Planner

Search our weather history database for the weather conditions in past years. The results will help you decide how hot, cold, wet, or windy it might be!

Date:

Astronomy

Feb. 02, 2013 Rise Set
Actual Time 7:26 AM MST 5:33 PM MST
Civil Twilight 6:57 AM MST 6:03 PM MST
Nautical Twilight 6:24 AM MST 6:36 PM MST
Astronomical Twilight 5:51 AM MST 7:08 PM MST
Moon No Moon Rise 10:33 AM MST (2/2)
Length of Visible Light 11h 05m
Length of Day
10h 07m
Waning Gibbous, 59% of the Moon is Illuminated
Feb 2
Waning Gibbous
Feb 3
Last Quarter
Feb 10
New
Feb 17
First Quarter
Feb 25
Full

Hourly Weather History & Observations

Time (MST) Temp. Windchill Dew Point Humidity Pressure Visibility Wind Dir Wind Speed Gust Speed Precip Events Conditions
12:54 AM 25.0 °F 11.7 °F 18.0 °F 75% 30.38 in 10.0 mi WSW 17.3 mph - N/A   Clear
1:54 AM 25.0 °F 10.2 °F 18.0 °F 75% 30.39 in 10.0 mi West 21.9 mph - N/A   Clear
2:54 AM 24.1 °F 13.1 °F 18.0 °F 77% 30.41 in 10.0 mi WSW 11.5 mph - N/A   Clear
3:54 AM 23.0 °F 11.7 °F 18.0 °F 81% 30.43 in 10.0 mi SW 11.5 mph - N/A   Clear
5:54 AM 21.9 °F 8.2 °F 17.1 °F 82% 30.46 in 10.0 mi WSW 16.1 mph - N/A   Clear
6:54 AM 23.0 °F 6.9 °F 17.1 °F 78% 30.47 in 10.0 mi WSW 24.2 mph - N/A   Clear
7:54 AM 23.0 °F 10.6 °F 17.1 °F 78% 30.50 in 10.0 mi WSW 13.8 mph - N/A   Clear
8:54 AM 26.1 °F 13.6 °F 18.0 °F 71% 30.51 in 10.0 mi SW 16.1 mph - N/A   Clear
9:54 AM 30.0 °F 19.1 °F 19.9 °F 66% 30.50 in 10.0 mi WSW 15.0 mph - N/A   Clear
10:54 AM 32.0 °F 20.1 °F 19.9 °F 61% 30.51 in 10.0 mi WSW 19.6 mph - N/A   Clear
11:54 AM 35.1 °F 23.8 °F 19.9 °F 54% 30.47 in 10.0 mi West 20.7 mph - N/A   Clear
12:54 PM 37.0 °F 27.0 °F 19.9 °F 50% 30.44 in 10.0 mi West 18.4 mph - N/A   Clear
1:54 PM 39.0 °F 29.6 °F 19.9 °F 46% 30.40 in 10.0 mi West 18.4 mph - N/A   Clear
2:54 PM 39.9 °F 31.4 °F 19.0 °F 43% 30.40 in 10.0 mi West 16.1 mph - N/A   Clear
3:54 PM 39.9 °F 32.1 °F 18.0 °F 41% 30.39 in 10.0 mi WSW 13.8 mph - N/A   Clear
4:54 PM 37.9 °F 30.0 °F 18.0 °F 45% 30.40 in 10.0 mi WSW 12.7 mph - N/A   Clear
5:54 PM 34.0 °F 24.6 °F 18.0 °F 52% 30.42 in 10.0 mi WSW 13.8 mph - N/A   Clear
6:54 PM 33.1 °F 24.9 °F 18.0 °F 54% 30.43 in 10.0 mi SW 10.4 mph - N/A   Clear
7:54 PM 30.9 °F 21.2 °F 17.1 °F 57% 30.44 in 10.0 mi WSW 12.7 mph - N/A   Clear
8:54 PM 30.0 °F 21.1 °F 17.1 °F 59% 30.42 in 10.0 mi SW 10.4 mph - N/A   Clear
9:54 PM 30.9 °F 22.2 °F 16.0 °F 54% 30.38 in 10.0 mi SSW 10.4 mph - N/A   Clear
10:54 PM 28.0 °F 18.1 °F 15.1 °F 58% 30.39 in 10.0 mi WSW 11.5 mph - N/A   Clear
11:54 PM 28.0 °F 16.5 °F 15.1 °F 58% 30.35 in 10.0 mi WSW 15.0 mph - N/A   Clear